Location: Glash�tten
(50.2140°N, 8.4010°E)
Time: 00:46:34
(UTC+02:00)

BlueWalker 3 - Visible Passes

Search period start: 27 March 2023 00:00
Search period end: 06 April 2023 00:00
Orbit: 497 x 515 km, 53.2° (Epoch: 25 March)

Date Brightness Start Highest point End Pass type
(mag) Time Alt. Az. Time Alt. Az. Time Alt. Az.
27 Mar 3.5 20:52:39 10° S 20:55:10 17° SE 20:55:50 16° ESE visible
27 Mar 4.0 22:29:20 10° SW 22:30:39 20° SW 22:30:39 20° SW visible
28 Mar 3.6 20:32:52 10° S 20:35:28 17° SE 20:37:59 10° E visible
28 Mar 2.3 22:09:38 10° WSW 22:12:47 53° SSW 22:12:47 53° SSW visible
29 Mar 1.8 21:49:56 10° WSW 21:53:49 72° SSE 21:54:37 52° E visible
29 Mar 4.7 23:28:42 10° W 23:29:25 15° W 23:29:25 15° W visible
30 Mar 1.8 21:30:13 10° WSW 21:34:07 73° SSE 21:36:14 25° ENE visible
30 Mar 3.8 23:09:00 10° W 23:11:01 28° WNW 23:11:01 28° WNW visible
31 Mar 1.9 21:10:29 10° WSW 21:14:23 75° SSE 21:17:40 14° ENE visible
31 Mar 2.9 22:49:17 10° W 22:52:25 46° NW 22:52:25 46° NW visible
01 Apr 1.9 20:50:45 10° WSW 20:54:39 77° SSE 20:58:33 10° ENE visible
01 Apr 2.4 22:29:33 10° W 22:33:24 54° N 22:33:41 53° NNE visible
02 Apr 5.1 00:08:23 10° WNW 00:08:26 10° WNW 00:08:26 10° WNW visible
02 Apr 1.9 20:30:59 10° WSW 20:34:54 79° SSE 20:38:48 10° ENE visible
02 Apr 2.5 22:09:49 10° W 22:13:39 54° N 22:14:50 37° NE visible
02 Apr 4.6 23:48:38 10° WNW 23:49:35 17° WNW 23:49:35 17° WNW visible
03 Apr 2.5 21:50:04 10° W 21:53:54 54° N 21:55:55 25° ENE visible
03 Apr 4.0 23:28:53 10° WNW 23:30:39 25° WNW 23:30:39 25° WNW visible
04 Apr 2.5 21:30:18 10° W 21:34:09 54° N 21:36:56 17° ENE visible
04 Apr 3.3 23:09:06 10° WNW 23:11:40 39° WNW 23:11:40 39° WNW visible
05 Apr 2.6 21:10:31 10° W 21:14:22 54° N 21:17:54 12° ENE visible
05 Apr 2.4 22:49:19 10° WNW 22:52:38 60° NW 22:52:38 60° NW visible
